Regional Weather Roundup
Issued by NWS

Home | Current Version | Previous Version | Graphics & Text | Print | Product List | Glossary On
Versions: 1 2 3 4 5 6 7 8 9 10 11 12 13 14 15 16 17 18 19 20 21 22 23 24 25 26 27 28 29 30 31 32 33 34 35 36 37 38 39 40 41 42 43 44 45 46 47 48 49 50
000
ASUS43 KBIS 012120
RWRND

NORTH DAKOTA REGIONAL WEATHER ROUNDUP
NATIONAL WEATHER SERVICE BISMARCK ND
400 PM CDT MON SEP 01 2014

NOTE: "FAIR" INDICATES FEW OR NO CLOUDS BELOW 12,000 FEET WITH NO
SIGNIFICANT WEATHER AND/OR OBSTRUCTIONS TO VISIBILITY.


NDZ001>003-009>011-017-012200-
NORTHWEST NORTH DAKOTA

CITY           SKY/WX    TMP DP  RH WIND       PRES   REMARKS
WILLISTON      PTSUNNY   73  42  32 NW9       29.82F
MINOT          MOSUNNY   72  41  32 W14       29.79S
MINOT AFB      MOSUNNY   72  44  36 NW10      29.78F
$$

NDZ018>021-031>035-040>046-012200-
SOUTHWEST NORTH DAKOTA

CITY           SKY/WX    TMP DP  RH WIND       PRES   REMARKS
BISMARCK       SUNNY     74  46  36 NW16G23   29.82S
DICKINSON      MOSUNNY   66  45  46 NW15      29.86R
GARRISON         N/A     68  45  43 W9        29.81S
HETTINGER ARPT PTSUNNY   69  46  43 W16G22    29.88F
$$

NDZ004>008-012>016-024-026-027-054-012200-
NORTHEAST NORTH DAKOTA

CITY           SKY/WX    TMP DP  RH WIND       PRES   REMARKS
GRAND FORKS    PTSUNNY   66  54  63 NW7       29.71S
GRND FRKS AFB  PTSUNNY   66  55  68 NW9       29.72F
DEVILS LAKE    SUNNY     70  48  46 NW14      29.74S
$$

NDZ022-023-025-028>030-036>039-047>053-012200-
SOUTHEAST NORTH DAKOTA

CITY           SKY/WX    TMP DP  RH WIND       PRES   REMARKS
FARGO          MOSUNNY   77  53  43 W14       29.71F
JAMESTOWN      MOSUNNY   72  51  47 W16G23    29.76S
$$



USA.gov is the U.S. government's official web portal to all federal, state and local government web resources and services.